Cotulla, TX

5:10 AM CST on November 22, 2019 (GMT -0600)
Cotulla-La Salle County

Weather History for KCOT - August, 2019

Change the Weather History Date:

Tuesday, August 27, 2019

  Actual Average Record
Temperature  
Mean Temperature 92 °F -  
Max Temperature 104 °F 93 °F 106 °F (2011)
Min Temperature 81 °F 72 °F 69 °F (1997)
Cooling Degree Days 28    
Growing Degree Days 42 (Base 50)    
Moisture  
Dew Point 72 °F    
Average Humidity 57    
Maximum Humidity 85    
Minimum Humidity 27    
Precipitation  
Precipitation 0.00 in - - ()
Sea Level Pressure  
Sea Level Pressure 29.81 in    
Wind  
Wind Speed 10 mph ()    
Max Wind Speed 23 mph    
Max Gust Speed 30 mph    
Visibility 9.4 miles    
Events      
Averages and records for this station are not official NWS values.
T = Trace of Precipitation, MM = Missing Value Source: Averaged Metar Reports

Daily Weather History Graph

Daily Weather History Graph

Search for Another Location

Airport or City:

Astronomy

Aug. 27, 2019 Rise Set
Actual Time 7:12 AM CDT 8:03 PM CDT
Civil Twilight 6:48 AM CDT 8:27 PM CDT
Nautical Twilight 6:19 AM CDT 8:56 PM CDT
Astronomical Twilight 5:50 AM CDT 9:25 PM CDT
Moon 3:56 AM CDT (8/27) 6:09 PM CDT (8/27)
Length of Visible Light 13h 39m
Length of Day
12h 51m
Waning Crescent, 11% of the Moon is Illuminated
Aug 27
Waning Crescent
Aug 30
New
Sep 5
First Quarter
Sep 13
Full
Sep 21
Last Quarter

Hourly Weather History & Observations

Time (CDT) Temp. Heat Index Dew Point Humidity Pressure Visibility Wind Dir Wind Speed Gust Speed Precip Events Conditions
12:53 AM 88.0 °F 95.6 °F 73.0 °F 61% 29.76 in 10.0 mi SSE 10.4 mph - N/A   Clear
1:53 AM 87.1 °F 94.5 °F 73.0 °F 63% 29.76 in 10.0 mi SSE 10.4 mph - N/A   Clear
2:53 AM 84.9 °F 92.1 °F 73.9 °F 69% 29.76 in 10.0 mi SSE 9.2 mph - N/A   Clear
3:53 AM 84.0 °F 91.9 °F 75.0 °F 74% 29.76 in 10.0 mi SSE 8.1 mph 19.6 mph N/A   Clear
4:53 AM 82.9 °F 90.8 °F 75.9 °F 79% 29.76 in 10.0 mi SSE 9.2 mph - N/A   Clear
5:53 AM 82.0 °F 89.4 °F 75.9 °F 82% 29.76 in 9.0 mi SSE 6.9 mph - N/A   Clear
6:53 AM 81.0 °F 87.3 °F 75.9 °F 85% 29.77 in 8.0 mi SE 6.9 mph - N/A   Clear
7:53 AM 82.0 °F 89.4 °F 75.9 °F 82% 29.79 in 7.0 mi SSE 8.1 mph - N/A   Clear
8:53 AM 84.0 °F 92.6 °F 75.9 °F 76% 29.81 in 8.0 mi SSE 9.2 mph - N/A   Scattered Clouds
9:53 AM 87.1 °F 97.3 °F 75.9 °F 69% 29.83 in 8.0 mi SSE 8.1 mph - N/A   Mostly Cloudy
10:04 AM 87.1 °F 97.3 °F 75.9 °F 69% 29.86 in 8.0 mi SE 9.2 mph - N/A   Scattered Clouds
10:53 AM 91.0 °F 101.6 °F 75.0 °F 59% 29.83 in 8.0 mi SE 9.2 mph - N/A   Clear
11:53 AM 93.9 °F 104.0 °F 73.9 °F 52% 29.83 in 9.0 mi SSE 11.5 mph 20.7 mph N/A   Clear
12:53 PM 98.1 °F 107.2 °F 72.0 °F 43% 29.83 in 10.0 mi SE 10.4 mph 18.4 mph N/A   Partly Cloudy
1:53 PM 100.9 °F 108.9 °F 70.0 °F 37% 29.83 in 10.0 mi SE 12.7 mph 19.6 mph N/A   Partly Cloudy
2:53 PM 100.9 °F 108.2 °F 69.1 °F 36% 29.81 in 10.0 mi East 11.5 mph 20.7 mph N/A   Scattered Clouds
3:53 PM 104.0 °F 108.9 °F 66.0 °F 29% 29.79 in 10.0 mi ESE 15.0 mph 20.7 mph N/A   Partly Cloudy
4:53 PM 102.9 °F 105.5 °F 63.0 °F 27% 29.79 in 10.0 mi ESE 16.1 mph 23.0 mph N/A   Clear
5:53 PM 100.9 °F 104.6 °F 64.9 °F 31% 29.79 in 10.0 mi East 17.3 mph 27.6 mph N/A   Scattered Clouds
6:53 PM 99.0 °F 102.9 °F 66.0 °F 34% 29.80 in 10.0 mi ESE 18.4 mph 27.6 mph N/A   Partly Cloudy
7:53 PM 95.0 °F 99.5 °F 68.0 °F 41% 29.82 in 10.0 mi SE 20.7 mph 29.9 mph N/A   Clear
8:53 PM 91.9 °F 95.9 °F 68.0 °F 45% 29.86 in 10.0 mi SE 23.0 mph 28.8 mph N/A   Clear
9:53 PM 89.1 °F 95.0 °F 71.1 °F 55% 29.88 in 10.0 mi SE 17.3 mph 25.3 mph N/A   Clear
10:53 PM 86.0 °F 91.5 °F 71.1 °F 61% 29.89 in 10.0 mi SSE 11.5 mph 23.0 mph N/A   Clear
11:53 PM 84.9 °F 89.4 °F 70.0 °F 61% 29.90 in 10.0 mi SSE 8.1 mph - N/A   Clear